Dubuque, IA

9:05 AM CDT on October 23, 2017 (GMT -0500)
Dubuque Regional

Weather History for KDBQ - February, 2013

Change the Weather History Date:

Saturday, February 23, 2013

  Actual Average Record
Temperature  
Mean Temperature 16 °F 26 °F  
Max Temperature 23 °F 34 °F 60 °F (1933)
Min Temperature 8 °F 19 °F -16 °F (1889)
Degree Days  
Heating Degree Days 49 39  
Month to date heating degree days 1012 969  
Since 1 July heating degree days 5061 5206  
Cooling Degree Days 0 0  
Month to date cooling degree days 0 0  
Year to date cooling degree days 0 0  
Moisture  
Dew Point 14 °F    
Average Humidity 83    
Maximum Humidity 92    
Minimum Humidity 73    
Precipitation  
Precipitation T in 0.06 in 0.90 in (1977)
Month to date precipitation 1.24 1.14  
Year to date precipitation 2.96 2.31  
Snow  
Snow T in 0.30 in - ()
Month to date snowfall 9.5 7.7  
Since 1 July snowfall 35.3 32.3  
Snow Depth 4.00 in    
Sea Level Pressure  
Sea Level Pressure 29.95 in    
Wind  
Wind Speed 10 mph (West)    
Max Wind Speed 18 mph    
Max Gust Speed 22 mph    
Visibility 9 miles    
Events Snow    
T = Trace of Precipitation, MM = Missing Value Source: NWS Daily Summary

Daily Weather History Graph

Daily Weather History Graph

Search for Another Location

Airport or City:

Trip Planner

Search our weather history database for the weather conditions in past years. The results will help you decide how hot, cold, wet, or windy it might be!

Date:

Astronomy

Feb. 23, 2013 Rise Set
Actual Time 6:47 AM CST 5:45 PM CST
Civil Twilight 6:18 AM CST 6:14 PM CST
Nautical Twilight 5:46 AM CST 6:46 PM CST
Astronomical Twilight 5:13 AM CST 7:19 PM CST
Moon 3:55 PM CST 5:11 AM CST
Length of Visible Light 11h 55m
Length of Day
10h 58m
Waxing Gibbous, 95% of the Moon is Illuminated
Feb 23
Waxing Gibbous
Feb 25
Full
Mar 4
Last Quarter
Mar 11
New
Mar 19
First Quarter

Hourly Weather History & Observations

Time (CST) Temp. Windchill Dew Point Humidity Pressure Visibility Wind Dir Wind Speed Gust Speed Precip Events Conditions
12:53 AM 21.0 °F 9.9 °F 19.0 °F 92% 29.93 in 5.0 mi West 10.4 mph - 0.00 in Snow Light Snow
1:53 AM 21.0 °F 8.1 °F 18.0 °F 88% 29.93 in 7.0 mi West 13.8 mph - 0.00 in   Overcast
2:53 AM 19.9 °F 7.9 °F 18.0 °F 92% 29.93 in 7.0 mi West 11.5 mph - N/A   Overcast
3:53 AM 19.0 °F 6.1 °F 16.0 °F 88% 29.93 in 7.0 mi West 12.7 mph - 0.00 in   Overcast
4:53 AM 18.0 °F 5.4 °F 16.0 °F 92% 29.93 in 8.0 mi West 11.5 mph - N/A   Overcast
5:53 AM 17.1 °F 3.0 °F 15.1 °F 92% 29.94 in 10.0 mi WSW 13.8 mph - N/A   Overcast
6:53 AM 17.1 °F 3.6 °F 14.0 °F 88% 29.94 in 9.0 mi WSW 12.7 mph - N/A   Overcast
7:53 AM 18.0 °F 5.4 °F 15.1 °F 88% 29.95 in 9.0 mi WSW 11.5 mph - N/A   Overcast
8:53 AM 19.0 °F 5.0 °F 15.1 °F 85% 29.95 in 10.0 mi West 15.0 mph - N/A   Overcast
9:24 AM 19.4 °F 5.0 °F 15.8 °F 86% 29.90 in 10.0 mi West 16.1 mph - N/A   Overcast
9:53 AM 19.9 °F 6.2 °F 16.0 °F 85% 29.95 in 10.0 mi West 15.0 mph - N/A   Overcast
10:53 AM 19.9 °F 5.7 °F 16.0 °F 85% 29.96 in 10.0 mi WSW 16.1 mph - N/A   Mostly Cloudy
11:28 AM 21.2 °F 7.8 °F 15.8 °F 80% 29.91 in 10.0 mi WSW 15.0 mph - N/A   Scattered Clouds
11:53 AM 21.9 °F 9.8 °F 17.1 °F 82% 29.96 in 10.0 mi West 12.7 mph - N/A   Partly Cloudy
12:53 PM 23.0 °F 11.7 °F 17.1 °F 78% 29.94 in 10.0 mi West 11.5 mph - N/A   Partly Cloudy
1:53 PM 21.9 °F 9.8 °F 15.1 °F 75% 29.94 in 10.0 mi West 12.7 mph - N/A   Clear
2:53 PM 23.0 °F 11.1 °F 15.1 °F 72% 29.94 in 10.0 mi WSW 12.7 mph - N/A   Clear
3:53 PM 23.0 °F 12.4 °F 16.0 °F 74% 29.94 in 10.0 mi WSW 10.4 mph - N/A   Clear
4:53 PM 21.0 °F 11.4 °F 15.1 °F 78% 29.95 in 10.0 mi WSW 8.1 mph - N/A   Clear
5:53 PM 19.0 °F 8.2 °F 12.9 °F 77% 29.96 in 10.0 mi WSW 9.2 mph - N/A   Clear
6:53 PM 19.0 °F 9.0 °F 12.9 °F 77% 29.98 in 10.0 mi West 8.1 mph - N/A   Clear
7:53 PM 14.0 °F 6.5 °F 10.9 °F 88% 29.99 in 10.0 mi West 4.6 mph - N/A   Clear
8:53 PM 15.1 °F - 12.0 °F 88% 29.99 in 10.0 mi Calm Calm - N/A   Clear
9:53 PM 12.2 °F - 8.6 °F 85% 29.94 in 10.0 mi Calm Calm - N/A   Clear
10:53 PM 8.1 °F 1.4 °F 6.1 °F 92% 30.01 in 9.0 mi West 3.5 mph - N/A   Clear
11:53 PM 12.0 °F 2.7 °F 9.0 °F 88% 30.01 in 10.0 mi NW 5.8 mph - N/A   Clear